Year,Month,Day,Hour,Minute,Value (Times are PST for temperature in C)
2012,09,12,00,00,8.70
2012,09,12,00,01,8.70
2012,09,12,00,02,8.70
2012,09,12,00,03,8.70
2012,09,12,00,04,8.70
2012,09,12,00,05,8.70
2012,09,12,00,06,8.70
2012,09,12,00,07,8.70
2012,09,12,00,08,8.70
2012,09,12,00,09,8.70
2012,09,12,00,10,8.70
2012,09,12,00,11,8.70
2012,09,12,00,12,8.70
2012,09,12,00,13,8.70
2012,09,12,00,14,8.70
2012,09,12,00,15,8.70
2012,09,12,00,16,8.70
2012,09,12,00,17,8.70
2012,09,12,00,18,8.80
2012,09,12,00,19,8.70
2012,09,12,00,20,8.70
2012,09,12,00,21,8.70
2012,09,12,00,22,8.60
2012,09,12,00,23,8.60
2012,09,12,00,24,8.60
2012,09,12,00,25,8.60
2012,09,12,00,26,8.60
2012,09,12,00,27,8.60
2012,09,12,00,28,8.50
2012,09,12,00,29,8.50
2012,09,12,00,30,8.40
2012,09,12,00,31,8.40
2012,09,12,00,32,8.40
2012,09,12,00,33,8.30
2012,09,12,00,34,8.30
2012,09,12,00,35,8.30
2012,09,12,00,36,8.30
2012,09,12,00,37,8.30
2012,09,12,00,38,8.20
2012,09,12,00,39,8.20
2012,09,12,00,40,8.20
2012,09,12,00,41,8.20
2012,09,12,00,42,8.20
2012,09,12,00,43,8.20
2012,09,12,00,44,8.20
2012,09,12,00,45,8.20
2012,09,12,00,46,8.20
2012,09,12,00,47,8.10
2012,09,12,00,48,8.10
2012,09,12,00,49,8.00
2012,09,12,00,50,7.90
2012,09,12,00,51,7.80
2012,09,12,00,52,7.80
2012,09,12,00,53,7.70
2012,09,12,00,54,7.70
2012,09,12,00,55,7.60
2012,09,12,00,56,7.60
2012,09,12,00,57,7.60
2012,09,12,00,58,7.50
2012,09,12,00,59,7.50
2012,09,12,01,00,7.50
2012,09,12,01,01,7.40
2012,09,12,01,02,7.40
2012,09,12,01,03,7.40
2012,09,12,01,04,7.40
2012,09,12,01,05,7.40
2012,09,12,01,06,7.30
2012,09,12,01,07,7.30
2012,09,12,01,08,7.30
2012,09,12,01,09,7.30
2012,09,12,01,10,7.20
2012,09,12,01,11,7.20
2012,09,12,01,12,7.20
2012,09,12,01,13,7.20
2012,09,12,01,14,7.20
2012,09,12,01,15,7.20
2012,09,12,01,16,7.10
2012,09,12,01,17,7.10
2012,09,12,01,18,7.10
2012,09,12,01,19,7.10
2012,09,12,01,20,7.20
2012,09,12,01,21,7.20
2012,09,12,01,22,7.20
2012,09,12,01,23,7.20
2012,09,12,01,24,7.20
2012,09,12,01,25,7.20
2012,09,12,01,26,7.20
2012,09,12,01,27,7.20
2012,09,12,01,28,7.20
2012,09,12,01,29,7.20
2012,09,12,01,30,7.20
2012,09,12,01,31,7.20
2012,09,12,01,32,7.20
2012,09,12,01,33,7.20
2012,09,12,01,34,7.20
2012,09,12,01,35,7.20
2012,09,12,01,36,7.20
2012,09,12,01,37,7.20
2012,09,12,01,38,7.20
2012,09,12,01,39,7.30
2012,09,12,01,40,7.30
2012,09,12,01,41,7.30
2012,09,12,01,42,7.30
2012,09,12,01,43,7.30
2012,09,12,01,44,7.30
2012,09,12,01,45,7.30
2012,09,12,01,46,7.30
2012,09,12,01,47,7.30
2012,09,12,01,48,7.30
2012,09,12,01,49,7.30
2012,09,12,01,50,7.30
2012,09,12,01,51,7.30
2012,09,12,01,52,7.30
2012,09,12,01,53,7.30
2012,09,12,01,54,7.30
2012,09,12,01,55,7.30
2012,09,12,01,56,7.30
2012,09,12,01,57,7.30
2012,09,12,01,58,7.30
2012,09,12,01,59,7.30
2012,09,12,02,00,7.30
2012,09,12,02,01,7.20
2012,09,12,02,02,7.20
2012,09,12,02,03,7.20
2012,09,12,02,04,7.20
2012,09,12,02,05,7.20
2012,09,12,02,06,7.20
2012,09,12,02,07,7.20
2012,09,12,02,08,7.20
2012,09,12,02,09,7.20
2012,09,12,02,10,7.20
2012,09,12,02,11,7.20
2012,09,12,02,12,7.20
2012,09,12,02,13,7.20
2012,09,12,02,14,7.20
2012,09,12,02,15,7.20
2012,09,12,02,16,7.30
2012,09,12,02,17,7.30
2012,09,12,02,18,7.40
2012,09,12,02,19,7.40
2012,09,12,02,20,7.50
2012,09,12,02,21,7.60
2012,09,12,02,22,7.60
2012,09,12,02,23,7.70
2012,09,12,02,24,7.70
2012,09,12,02,25,7.80
2012,09,12,02,26,7.80
2012,09,12,02,27,7.80
2012,09,12,02,28,7.80
2012,09,12,02,29,7.80
2012,09,12,02,30,7.80
2012,09,12,02,31,7.80
2012,09,12,02,32,7.80
2012,09,12,02,33,7.80
2012,09,12,02,34,7.80
2012,09,12,02,35,7.80
2012,09,12,02,36,7.80
2012,09,12,02,37,7.80
2012,09,12,02,38,7.70
2012,09,12,02,39,7.70
2012,09,12,02,40,7.70
2012,09,12,02,41,7.60
2012,09,12,02,42,7.60
2012,09,12,02,43,7.50
2012,09,12,02,44,7.50
2012,09,12,02,45,7.40
2012,09,12,02,46,7.30
2012,09,12,02,47,7.30
2012,09,12,02,48,7.20
2012,09,12,02,49,7.20
2012,09,12,02,50,7.10
2012,09,12,02,51,7.10
2012,09,12,02,52,7.00
2012,09,12,02,53,6.90
2012,09,12,02,54,6.90
2012,09,12,02,55,6.80
2012,09,12,02,56,6.70
2012,09,12,02,57,6.70
2012,09,12,02,58,6.70
2012,09,12,02,59,6.60
2012,09,12,03,00,6.60
2012,09,12,03,01,6.60
2012,09,12,03,02,6.50
2012,09,12,03,03,6.50
2012,09,12,03,04,6.50
2012,09,12,03,05,6.50
2012,09,12,03,06,6.50
2012,09,12,03,07,6.50
2012,09,12,03,08,6.50
2012,09,12,03,09,6.50
2012,09,12,03,10,6.50
2012,09,12,03,11,6.50
2012,09,12,03,12,6.50
2012,09,12,03,13,6.40
2012,09,12,03,14,6.40
2012,09,12,03,15,6.40
2012,09,12,03,16,6.40
2012,09,12,03,17,6.40
2012,09,12,03,18,6.40
2012,09,12,03,19,6.30
2012,09,12,03,20,6.30
2012,09,12,03,21,6.30
2012,09,12,03,22,6.30
2012,09,12,03,23,6.40
2012,09,12,03,24,6.40
2012,09,12,03,25,6.40
2012,09,12,03,26,6.40
2012,09,12,03,27,6.40
2012,09,12,03,28,6.50
2012,09,12,03,29,6.60
2012,09,12,03,30,6.60
2012,09,12,03,31,6.60
2012,09,12,03,32,6.60
2012,09,12,03,33,6.60
2012,09,12,03,34,6.60
2012,09,12,03,35,6.60
2012,09,12,03,36,6.60
2012,09,12,03,37,6.60
2012,09,12,03,38,6.60
2012,09,12,03,39,6.50
2012,09,12,03,40,6.50
2012,09,12,03,41,6.50
2012,09,12,03,42,6.50
2012,09,12,03,43,6.50
2012,09,12,03,44,6.50
2012,09,12,03,45,6.60
2012,09,12,03,46,6.60
2012,09,12,03,47,6.60
2012,09,12,03,48,6.60
2012,09,12,03,49,6.60
2012,09,12,03,50,6.60
2012,09,12,03,51,6.70
2012,09,12,03,52,6.70
2012,09,12,03,53,6.70
2012,09,12,03,54,6.70
2012,09,12,03,55,6.80
2012,09,12,03,56,6.80
2012,09,12,03,57,6.80
2012,09,12,03,58,6.80
2012,09,12,03,59,6.70
2012,09,12,04,00,6.70
2012,09,12,04,01,6.60
2012,09,12,04,02,6.60
2012,09,12,04,03,6.60
2012,09,12,04,04,6.50
2012,09,12,04,05,6.40
2012,09,12,04,06,6.40
2012,09,12,04,07,6.40
2012,09,12,04,08,6.30
2012,09,12,04,09,6.30
2012,09,12,04,10,6.30
2012,09,12,04,11,6.20
2012,09,12,04,12,6.20
2012,09,12,04,13,6.30
2012,09,12,04,14,6.30
2012,09,12,04,15,6.40
2012,09,12,04,16,6.50
2012,09,12,04,17,6.60
2012,09,12,04,18,6.80
2012,09,12,04,19,6.90
2012,09,12,04,20,7.00
2012,09,12,04,21,7.10
2012,09,12,04,22,7.20
2012,09,12,04,23,7.30
2012,09,12,04,24,7.40
2012,09,12,04,25,7.50
2012,09,12,04,26,7.60
2012,09,12,04,27,7.70
2012,09,12,04,28,7.80
2012,09,12,04,29,7.90
2012,09,12,04,30,7.90
2012,09,12,04,31,7.90
2012,09,12,04,32,7.90
2012,09,12,04,33,7.90
2012,09,12,04,34,7.90
2012,09,12,04,35,7.90
2012,09,12,04,36,7.90
2012,09,12,04,37,7.90
2012,09,12,04,38,8.00
2012,09,12,04,39,8.10
2012,09,12,04,40,8.10
2012,09,12,04,41,8.30
2012,09,12,04,42,8.40
2012,09,12,04,43,8.50
2012,09,12,04,44,8.60
2012,09,12,04,45,8.60
2012,09,12,04,46,8.70
2012,09,12,04,47,8.80
2012,09,12,04,48,9.00
2012,09,12,04,49,9.10
2012,09,12,04,50,9.20
2012,09,12,04,51,9.40
2012,09,12,04,52,9.50
2012,09,12,04,53,9.60
2012,09,12,04,54,9.70
2012,09,12,04,55,9.80
2012,09,12,04,56,9.90
2012,09,12,04,57,10.00
2012,09,12,04,58,10.10
2012,09,12,04,59,10.20
2012,09,12,05,00,10.30
2012,09,12,05,01,10.30
2012,09,12,05,02,10.40
2012,09,12,05,03,10.50
2012,09,12,05,04,10.60
2012,09,12,05,05,10.60
2012,09,12,05,06,10.70
2012,09,12,05,07,10.70
2012,09,12,05,08,10.80
2012,09,12,05,09,10.80
2012,09,12,05,10,10.80
2012,09,12,05,11,10.90
2012,09,12,05,12,10.90
2012,09,12,05,13,10.90
2012,09,12,05,14,11.00
2012,09,12,05,15,11.00
2012,09,12,05,16,11.00
2012,09,12,05,17,11.00
2012,09,12,05,18,11.00
2012,09,12,05,19,11.10
2012,09,12,05,20,11.10
2012,09,12,05,21,11.10
2012,09,12,05,22,11.10
2012,09,12,05,23,11.10
2012,09,12,05,24,11.10
2012,09,12,05,25,11.10
2012,09,12,05,26,11.10
2012,09,12,05,27,11.10
2012,09,12,05,28,11.10
2012,09,12,05,29,11.10
2012,09,12,05,30,11.10
2012,09,12,05,31,11.10
2012,09,12,05,32,11.10
2012,09,12,05,33,11.10
2012,09,12,05,34,11.10
2012,09,12,05,35,11.10
2012,09,12,05,36,11.10
2012,09,12,05,37,11.10
2012,09,12,05,38,11.10
2012,09,12,05,39,11.10
2012,09,12,05,40,11.00
2012,09,12,05,41,11.00
2012,09,12,05,42,11.00
2012,09,12,05,43,11.00
2012,09,12,05,44,10.90
2012,09,12,05,45,10.90
2012,09,12,05,46,10.90
2012,09,12,05,47,10.90
2012,09,12,05,48,10.90
2012,09,12,05,49,10.90
2012,09,12,05,50,10.80
2012,09,12,05,51,10.80
2012,09,12,05,52,10.80
2012,09,12,05,53,10.80
2012,09,12,05,54,10.80
2012,09,12,05,55,10.80
2012,09,12,05,56,10.80
2012,09,12,05,57,10.80
2012,09,12,05,58,10.70
2012,09,12,05,59,10.70
2012,09,12,06,00,10.70
2012,09,12,06,01,10.70
2012,09,12,06,02,10.60
2012,09,12,06,03,10.60
2012,09,12,06,04,10.60
2012,09,12,06,05,10.60
2012,09,12,06,06,10.50
2012,09,12,06,07,10.50
2012,09,12,06,08,10.50
2012,09,12,06,09,10.50
2012,09,12,06,10,10.40
2012,09,12,06,11,10.40
2012,09,12,06,12,10.40
2012,09,12,06,13,10.40
2012,09,12,06,14,10.40
2012,09,12,06,15,10.30
2012,09,12,06,16,10.30
2012,09,12,06,17,10.30
2012,09,12,06,18,10.30
2012,09,12,06,19,10.30
2012,09,12,06,20,10.30
2012,09,12,06,21,10.30
2012,09,12,06,22,10.30
2012,09,12,06,23,10.20
2012,09,12,06,24,10.20
2012,09,12,06,25,10.20
2012,09,12,06,26,10.20
2012,09,12,06,27,10.20
2012,09,12,06,28,10.20
2012,09,12,06,29,10.20
2012,09,12,06,30,10.10
2012,09,12,06,31,10.10
2012,09,12,06,32,10.10
2012,09,12,06,33,10.10
2012,09,12,06,34,10.10
2012,09,12,06,35,10.10
2012,09,12,06,36,10.00
2012,09,12,06,37,10.00
2012,09,12,06,38,10.00
2012,09,12,06,39,10.00
2012,09,12,06,40,9.90
2012,09,12,06,41,9.90
2012,09,12,06,42,9.90
2012,09,12,06,43,9.80
2012,09,12,06,44,9.80
2012,09,12,06,45,9.70
2012,09,12,06,46,9.60
2012,09,12,06,47,9.50
2012,09,12,06,48,9.50
2012,09,12,06,49,9.40
2012,09,12,06,50,9.30
2012,09,12,06,51,9.20
2012,09,12,06,52,9.10
2012,09,12,06,53,9.00
2012,09,12,06,54,9.00
2012,09,12,06,55,8.90
2012,09,12,06,56,8.90
2012,09,12,06,57,8.90
2012,09,12,06,58,8.80
2012,09,12,06,59,8.80
2012,09,12,07,00,8.80
2012,09,12,07,01,8.80
2012,09,12,07,02,8.80
2012,09,12,07,03,8.70
2012,09,12,07,04,8.70
2012,09,12,07,05,8.70
2012,09,12,07,06,8.70
2012,09,12,07,07,8.70
2012,09,12,07,08,8.60
2012,09,12,07,09,8.60
2012,09,12,07,10,8.60
2012,09,12,07,11,8.60
2012,09,12,07,12,8.60
2012,09,12,07,13,8.60
2012,09,12,07,14,8.60
2012,09,12,07,15,8.50
2012,09,12,07,16,8.50
2012,09,12,07,17,8.50
2012,09,12,07,18,8.50
2012,09,12,07,19,8.50
2012,09,12,07,20,8.50
2012,09,12,07,21,8.60
2012,09,12,07,22,8.60
2012,09,12,07,23,8.60
2012,09,12,07,24,8.60
2012,09,12,07,25,8.60
2012,09,12,07,26,8.60
2012,09,12,07,27,8.60
2012,09,12,07,28,8.60
2012,09,12,07,29,8.60
2012,09,12,07,30,8.60
2012,09,12,07,31,8.60
2012,09,12,07,32,8.60
2012,09,12,07,33,8.70
2012,09,12,07,34,8.70
2012,09,12,07,35,8.70
2012,09,12,07,36,8.70
2012,09,12,07,37,8.80
2012,09,12,07,38,8.80
2012,09,12,07,39,8.80
2012,09,12,07,40,8.90
2012,09,12,07,41,8.90
2012,09,12,07,42,8.90
2012,09,12,07,43,8.90
2012,09,12,07,44,9.00
2012,09,12,07,45,9.00
2012,09,12,07,46,9.00
2012,09,12,07,47,9.00
2012,09,12,07,48,9.00
2012,09,12,07,49,9.10
2012,09,12,07,50,9.10
2012,09,12,07,51,9.20
2012,09,12,07,52,9.30
2012,09,12,07,53,9.30
2012,09,12,07,54,9.40
2012,09,12,07,55,9.40
2012,09,12,07,56,9.40
2012,09,12,07,57,9.50
2012,09,12,07,58,9.50
2012,09,12,07,59,9.60
2012,09,12,08,00,9.60
2012,09,12,08,01,9.60
2012,09,12,08,02,9.60
2012,09,12,08,03,9.50
2012,09,12,08,04,9.50
2012,09,12,08,05,9.50
2012,09,12,08,06,9.40
2012,09,12,08,07,9.40
2012,09,12,08,08,9.40
2012,09,12,08,09,9.40
2012,09,12,08,10,9.40
2012,09,12,08,11,9.30
2012,09,12,08,12,9.30
2012,09,12,08,13,9.30
2012,09,12,08,14,9.30
2012,09,12,08,15,9.30
2012,09,12,08,16,9.30
2012,09,12,08,17,9.40
2012,09,12,08,18,9.40
2012,09,12,08,19,9.40
2012,09,12,08,20,9.50
2012,09,12,08,21,9.50
2012,09,12,08,22,9.50
2012,09,12,08,23,9.60
2012,09,12,08,24,9.60
2012,09,12,08,25,9.60
2012,09,12,08,26,9.60
2012,09,12,08,27,9.70
2012,09,12,08,28,9.80
2012,09,12,08,29,9.80
2012,09,12,08,30,9.90
2012,09,12,08,31,10.00
2012,09,12,08,32,10.10
2012,09,12,08,33,10.20
2012,09,12,08,34,10.30
2012,09,12,08,35,10.40
2012,09,12,08,36,10.50
2012,09,12,08,37,10.60
2012,09,12,08,38,10.70
2012,09,12,08,39,10.80
2012,09,12,08,40,10.90
2012,09,12,08,41,11.00
2012,09,12,08,42,11.10
2012,09,12,08,43,11.20
2012,09,12,08,44,11.30
2012,09,12,08,45,11.50
2012,09,12,08,46,11.60
2012,09,12,08,47,11.70
2012,09,12,08,48,11.80
2012,09,12,08,49,11.90
2012,09,12,08,50,12.00
2012,09,12,08,51,12.10
2012,09,12,08,52,12.20
2012,09,12,08,53,12.30
2012,09,12,08,54,12.40
2012,09,12,08,55,12.50
2012,09,12,08,56,12.50
2012,09,12,08,57,12.60
2012,09,12,08,58,12.70
2012,09,12,08,59,12.70
2012,09,12,09,00,12.80
2012,09,12,09,01,12.80
2012,09,12,09,02,12.90
2012,09,12,09,03,12.90
2012,09,12,09,04,13.00
2012,09,12,09,05,13.00
2012,09,12,09,06,13.10
2012,09,12,09,07,13.10
2012,09,12,09,08,13.10
2012,09,12,09,09,13.10
2012,09,12,09,10,13.10
2012,09,12,09,11,13.10
2012,09,12,09,12,13.10
2012,09,12,09,13,13.10
2012,09,12,09,14,13.00
2012,09,12,09,15,13.00
2012,09,12,09,16,13.00
2012,09,12,09,17,13.00
2012,09,12,09,18,13.00
2012,09,12,09,19,13.10
2012,09,12,09,20,13.10
2012,09,12,09,21,13.20
2012,09,12,09,22,13.20
2012,09,12,09,23,13.20
2012,09,12,09,24,13.30
2012,09,12,09,25,13.30
2012,09,12,09,26,13.30
2012,09,12,09,27,13.30
2012,09,12,09,28,13.30
2012,09,12,09,29,13.30
2012,09,12,09,30,13.20
2012,09,12,09,31,13.20
2012,09,12,09,32,13.20
2012,09,12,09,33,13.20
2012,09,12,09,34,13.20
2012,09,12,09,35,13.20
2012,09,12,09,36,13.20
2012,09,12,09,37,13.20
2012,09,12,09,38,13.30
2012,09,12,09,39,13.30
2012,09,12,09,40,13.40
2012,09,12,09,41,13.50
2012,09,12,09,42,13.50
2012,09,12,09,43,13.60
2012,09,12,09,44,13.60
2012,09,12,09,45,13.60
2012,09,12,09,46,13.70
2012,09,12,09,47,13.70
2012,09,12,09,48,13.70
2012,09,12,09,49,13.70
2012,09,12,09,50,13.80
2012,09,12,09,51,13.80
2012,09,12,09,52,13.70
2012,09,12,09,53,13.70
2012,09,12,09,54,13.70
2012,09,12,09,55,13.70
2012,09,12,09,56,13.70
2012,09,12,09,57,13.70
2012,09,12,09,58,13.70
2012,09,12,09,59,13.70
2012,09,12,10,00,13.70
2012,09,12,10,01,13.80
2012,09,12,10,02,13.80
2012,09,12,10,03,13.80
2012,09,12,10,04,13.80
2012,09,12,10,05,13.90
2012,09,12,10,06,13.90
2012,09,12,10,07,13.90
2012,09,12,10,08,13.90
2012,09,12,10,09,13.90
2012,09,12,10,10,13.90
2012,09,12,10,11,13.90
2012,09,12,10,12,14.00
2012,09,12,10,13,14.00
2012,09,12,10,14,14.00
2012,09,12,10,15,14.10
2012,09,12,10,16,14.10
2012,09,12,10,17,14.10
2012,09,12,10,18,14.10
2012,09,12,10,19,14.20
2012,09,12,10,20,14.20
2012,09,12,10,21,14.20
2012,09,12,10,22,14.20
2012,09,12,10,23,14.30
2012,09,12,10,24,14.30
2012,09,12,10,25,14.40
2012,09,12,10,26,14.40
2012,09,12,10,27,14.50
2012,09,12,10,28,14.50
2012,09,12,10,29,14.50
2012,09,12,10,30,14.50
2012,09,12,10,31,14.50
2012,09,12,10,32,14.60
2012,09,12,10,33,14.60
2012,09,12,10,34,14.70
2012,09,12,10,35,14.70
2012,09,12,10,36,14.70
2012,09,12,10,37,14.70
2012,09,12,10,38,14.70
2012,09,12,10,39,14.80
2012,09,12,10,40,14.80
2012,09,12,10,41,14.90
2012,09,12,10,42,15.00
2012,09,12,10,43,15.00
2012,09,12,10,44,15.00
2012,09,12,10,45,15.10
2012,09,12,10,46,15.20
2012,09,12,10,47,15.30
2012,09,12,10,48,15.30
2012,09,12,10,49,15.40
2012,09,12,10,50,15.40
2012,09,12,10,51,15.30
2012,09,12,10,52,15.30
2012,09,12,10,53,15.30
2012,09,12,10,54,15.20
2012,09,12,10,55,15.20
2012,09,12,10,56,15.20
2012,09,12,10,57,15.20
2012,09,12,10,58,15.20
2012,09,12,10,59,15.20
2012,09,12,11,00,15.30
2012,09,12,11,01,15.30
2012,09,12,11,02,15.30
2012,09,12,11,03,15.20
2012,09,12,11,04,15.20
2012,09,12,11,05,15.20
2012,09,12,11,06,15.20
2012,09,12,11,07,15.20
2012,09,12,11,08,15.30
2012,09,12,11,09,15.30
2012,09,12,11,10,15.30
2012,09,12,11,11,15.30
2012,09,12,11,12,15.30
2012,09,12,11,13,15.30
2012,09,12,11,14,15.20
2012,09,12,11,15,15.10
2012,09,12,11,16,15.00
2012,09,12,11,17,15.00
2012,09,12,11,18,15.00
2012,09,12,11,19,15.00
2012,09,12,11,20,15.10
2012,09,12,11,21,15.20
2012,09,12,11,22,15.30
2012,09,12,11,23,15.40
2012,09,12,11,24,15.50
2012,09,12,11,25,15.60
2012,09,12,11,26,15.70
2012,09,12,11,27,15.70
2012,09,12,11,28,15.80
2012,09,12,11,29,15.80
2012,09,12,11,30,15.80
2012,09,12,11,31,15.80
2012,09,12,11,32,15.80
2012,09,12,11,33,15.80
2012,09,12,11,34,15.90
2012,09,12,11,35,15.90
2012,09,12,11,36,15.90
2012,09,12,11,37,15.90
2012,09,12,11,38,15.90
2012,09,12,11,39,15.80
2012,09,12,11,40,15.70
2012,09,12,11,41,15.70
2012,09,12,11,42,15.70
2012,09,12,11,43,15.70
2012,09,12,11,44,15.60
2012,09,12,11,45,15.60
2012,09,12,11,46,15.60
2012,09,12,11,47,15.60
2012,09,12,11,48,15.60
2012,09,12,11,49,15.60
2012,09,12,11,50,15.60
2012,09,12,11,51,15.70
2012,09,12,11,52,15.70
2012,09,12,11,53,15.70
2012,09,12,11,54,15.80
2012,09,12,11,55,15.80
2012,09,12,11,56,15.80
2012,09,12,11,57,15.80
2012,09,12,11,58,15.80
2012,09,12,11,59,15.80
2012,09,12,12,00,15.80
2012,09,12,12,01,15.80
2012,09,12,12,02,15.80
2012,09,12,12,03,15.90
2012,09,12,12,04,16.00
2012,09,12,12,05,16.00
2012,09,12,12,06,16.00
2012,09,12,12,07,16.10
2012,09,12,12,08,16.10
2012,09,12,12,09,16.10
2012,09,12,12,10,16.20
2012,09,12,12,11,16.10
2012,09,12,12,12,16.10
2012,09,12,12,13,16.10
2012,09,12,12,14,16.10
2012,09,12,12,15,16.10
2012,09,12,12,16,16.10
2012,09,12,12,17,16.10
2012,09,12,12,18,16.00
2012,09,12,12,19,16.00
2012,09,12,12,20,16.00
2012,09,12,12,21,16.00
2012,09,12,12,22,16.00
2012,09,12,12,23,16.00
2012,09,12,12,24,16.00
2012,09,12,12,25,16.00
2012,09,12,12,26,16.10
2012,09,12,12,27,16.10
2012,09,12,12,28,16.20
2012,09,12,12,29,16.20
2012,09,12,12,30,16.30
2012,09,12,12,31,16.40
2012,09,12,12,32,16.50
2012,09,12,12,33,16.60
2012,09,12,12,34,16.60
2012,09,12,12,35,16.50
2012,09,12,12,36,16.40
2012,09,12,12,37,16.30
2012,09,12,12,38,16.30
2012,09,12,12,39,16.30
2012,09,12,12,40,16.20
2012,09,12,12,41,16.30
2012,09,12,12,42,16.30
2012,09,12,12,43,16.30
2012,09,12,12,44,16.40
2012,09,12,12,45,16.40
2012,09,12,12,46,16.40
2012,09,12,12,47,16.40
2012,09,12,12,48,16.40
2012,09,12,12,49,16.30
2012,09,12,12,50,16.30
2012,09,12,12,51,16.30
2012,09,12,12,52,16.30
2012,09,12,12,53,16.30
2012,09,12,12,54,16.20
2012,09,12,12,55,16.20
2012,09,12,12,56,16.30
2012,09,12,12,57,16.30
2012,09,12,12,58,16.30
2012,09,12,12,59,16.30
2012,09,12,13,00,16.30
2012,09,12,13,01,16.30
2012,09,12,13,02,16.30
2012,09,12,13,03,16.30
2012,09,12,13,04,16.40
2012,09,12,13,05,16.50
2012,09,12,13,06,16.60
2012,09,12,13,07,16.70
2012,09,12,13,08,16.80
2012,09,12,13,09,16.80
2012,09,12,13,10,16.80
2012,09,12,13,11,16.80
2012,09,12,13,12,16.80
2012,09,12,13,13,16.80
2012,09,12,13,14,16.80
2012,09,12,13,15,16.70
2012,09,12,13,16,16.60
2012,09,12,13,17,16.60
2012,09,12,13,18,16.50
2012,09,12,13,19,16.50
2012,09,12,13,20,16.50
2012,09,12,13,21,16.50
2012,09,12,13,22,16.60
2012,09,12,13,23,16.60
2012,09,12,13,24,16.70
2012,09,12,13,25,16.80
2012,09,12,13,26,16.80
2012,09,12,13,27,16.80
2012,09,12,13,28,16.80
2012,09,12,13,29,16.90
2012,09,12,13,30,16.80
2012,09,12,13,31,16.80
2012,09,12,13,32,16.80
2012,09,12,13,33,16.90
2012,09,12,13,34,16.90
2012,09,12,13,35,17.00
2012,09,12,13,36,17.10
2012,09,12,13,37,17.10
2012,09,12,13,38,17.20
2012,09,12,13,39,17.20
2012,09,12,13,40,17.30
2012,09,12,13,41,17.30
2012,09,12,13,42,17.40
2012,09,12,13,43,17.40
2012,09,12,13,44,17.40
2012,09,12,13,45,17.40
2012,09,12,13,46,17.40
2012,09,12,13,47,17.40
2012,09,12,13,48,17.50
2012,09,12,13,49,17.50
2012,09,12,13,50,17.50
2012,09,12,13,51,17.50
2012,09,12,13,52,17.50
2012,09,12,13,53,17.50
2012,09,12,13,54,17.50
2012,09,12,13,55,17.50
2012,09,12,13,56,17.60
2012,09,12,13,57,17.50
2012,09,12,13,58,17.50
2012,09,12,13,59,17.50
2012,09,12,14,00,17.40
2012,09,12,14,01,17.40
2012,09,12,14,02,17.30
2012,09,12,14,03,17.30
2012,09,12,14,04,17.30
2012,09,12,14,05,17.40
2012,09,12,14,06,17.50
2012,09,12,14,07,17.60
2012,09,12,14,08,17.70
2012,09,12,14,09,17.80
2012,09,12,14,10,17.80
2012,09,12,14,11,17.80
2012,09,12,14,12,17.80
2012,09,12,14,13,17.70
2012,09,12,14,14,17.70
2012,09,12,14,15,17.80
2012,09,12,14,16,17.80
2012,09,12,14,17,17.80
2012,09,12,14,18,17.90
2012,09,12,14,19,17.90
2012,09,12,14,20,17.90
2012,09,12,14,21,17.80
2012,09,12,14,22,17.70
2012,09,12,14,23,17.70
2012,09,12,14,24,17.70
2012,09,12,14,25,17.70
2012,09,12,14,26,17.60
2012,09,12,14,27,17.70
2012,09,12,14,28,17.70
2012,09,12,14,29,17.80
2012,09,12,14,30,17.90
2012,09,12,14,31,17.90
2012,09,12,14,32,17.90
2012,09,12,14,33,17.90
2012,09,12,14,34,18.00
2012,09,12,14,35,18.00
2012,09,12,14,36,17.90
2012,09,12,14,37,17.90
2012,09,12,14,38,17.90
2012,09,12,14,39,17.90
2012,09,12,14,40,17.80
2012,09,12,14,41,17.80
2012,09,12,14,42,17.80
2012,09,12,14,43,17.80
2012,09,12,14,44,17.80
2012,09,12,14,45,17.80
2012,09,12,14,46,17.80
2012,09,12,14,47,17.90
2012,09,12,14,48,18.00
2012,09,12,14,49,18.10
2012,09,12,14,50,18.00
2012,09,12,14,51,18.00
2012,09,12,14,52,18.10
2012,09,12,14,53,18.00
2012,09,12,14,54,18.00
2012,09,12,14,55,17.90
2012,09,12,14,56,17.80
2012,09,12,14,57,17.80
2012,09,12,14,58,17.70
2012,09,12,14,59,17.70
2012,09,12,15,00,17.80
2012,09,12,15,01,17.80
2012,09,12,15,02,17.90
2012,09,12,15,03,18.00
2012,09,12,15,04,18.00
2012,09,12,15,05,18.10
2012,09,12,15,06,18.10
2012,09,12,15,07,18.20
2012,09,12,15,08,18.30
2012,09,12,15,09,18.30
2012,09,12,15,10,18.40
2012,09,12,15,11,18.50
2012,09,12,15,12,18.50
2012,09,12,15,13,18.50
2012,09,12,15,14,18.50
2012,09,12,15,15,18.40
2012,09,12,15,16,18.40
2012,09,12,15,17,18.40
2012,09,12,15,18,18.40
2012,09,12,15,19,18.40
2012,09,12,15,20,18.40
2012,09,12,15,21,18.40
2012,09,12,15,22,18.30
2012,09,12,15,23,18.30
2012,09,12,15,24,18.30
2012,09,12,15,25,18.40
2012,09,12,15,26,18.40
2012,09,12,15,27,18.40
2012,09,12,15,28,18.40
2012,09,12,15,29,18.50
2012,09,12,15,30,18.50
2012,09,12,15,31,18.60
2012,09,12,15,32,18.70
2012,09,12,15,33,18.70
2012,09,12,15,34,18.70
2012,09,12,15,35,18.60
2012,09,12,15,36,18.50
2012,09,12,15,37,18.40
2012,09,12,15,38,18.40
2012,09,12,15,39,18.40
2012,09,12,15,40,18.50
2012,09,12,15,41,18.50
2012,09,12,15,42,18.60
2012,09,12,15,43,18.60
2012,09,12,15,44,18.70
2012,09,12,15,45,18.70
2012,09,12,15,46,18.70
2012,09,12,15,47,18.70
2012,09,12,15,48,18.80
2012,09,12,15,49,18.90
2012,09,12,15,50,18.90
2012,09,12,15,51,18.90
2012,09,12,15,52,18.90
2012,09,12,15,53,18.90
2012,09,12,15,54,18.90
2012,09,12,15,55,18.80
2012,09,12,15,56,18.80
2012,09,12,15,57,18.70
2012,09,12,15,58,18.70
2012,09,12,15,59,18.70
2012,09,12,16,00,18.70
2012,09,12,16,01,18.70
2012,09,12,16,02,18.70
2012,09,12,16,03,18.60
2012,09,12,16,04,18.60
2012,09,12,16,05,18.60
2012,09,12,16,06,18.60
2012,09,12,16,07,18.60
2012,09,12,16,08,18.70
2012,09,12,16,09,18.70
2012,09,12,16,10,18.70
2012,09,12,16,11,18.70
2012,09,12,16,12,18.70
2012,09,12,16,13,18.80
2012,09,12,16,14,18.80
2012,09,12,16,15,18.90
2012,09,12,16,16,18.90
2012,09,12,16,17,19.00
2012,09,12,16,18,19.00
2012,09,12,16,19,19.00
2012,09,12,16,20,19.00
2012,09,12,16,21,19.00
2012,09,12,16,22,19.00
2012,09,12,16,23,19.00
2012,09,12,16,24,19.00
2012,09,12,16,25,19.00
2012,09,12,16,26,19.10
2012,09,12,16,27,19.10
2012,09,12,16,28,19.20
2012,09,12,16,29,19.20
2012,09,12,16,30,19.20
2012,09,12,16,31,19.20
2012,09,12,16,32,19.10
2012,09,12,16,33,19.00
2012,09,12,16,34,18.90
2012,09,12,16,35,18.80
2012,09,12,16,36,18.80
2012,09,12,16,37,18.80
2012,09,12,16,38,18.70
2012,09,12,16,39,18.70
2012,09,12,16,40,18.60
2012,09,12,16,41,18.60
2012,09,12,16,42,18.60
2012,09,12,16,43,18.60
2012,09,12,16,44,18.70
2012,09,12,16,45,18.70
2012,09,12,16,46,18.80
2012,09,12,16,47,18.80
2012,09,12,16,48,18.80
2012,09,12,16,49,18.80
2012,09,12,16,50,18.70
2012,09,12,16,51,18.70
2012,09,12,16,52,18.70
2012,09,12,16,53,18.70
2012,09,12,16,54,18.70
2012,09,12,16,55,18.70
2012,09,12,16,56,18.70
2012,09,12,16,57,18.70
2012,09,12,16,58,18.80
2012,09,12,16,59,18.80
2012,09,12,17,00,18.80
2012,09,12,17,01,18.80
2012,09,12,17,02,18.80
2012,09,12,17,03,18.80
2012,09,12,17,04,18.90
2012,09,12,17,05,18.90
2012,09,12,17,06,18.90
2012,09,12,17,07,18.90
2012,09,12,17,08,18.90
2012,09,12,17,09,18.90
2012,09,12,17,10,19.00
2012,09,12,17,11,19.00
2012,09,12,17,12,18.90
2012,09,12,17,13,19.00
2012,09,12,17,14,19.00
2012,09,12,17,15,19.00
2012,09,12,17,16,19.00
2012,09,12,17,17,18.90
2012,09,12,17,18,18.90
2012,09,12,17,19,18.90
2012,09,12,17,20,19.00
2012,09,12,17,21,19.00
2012,09,12,17,22,19.00
2012,09,12,17,23,19.00
2012,09,12,17,24,19.00
2012,09,12,17,25,19.00
2012,09,12,17,26,19.00
2012,09,12,17,27,19.10
2012,09,12,17,28,19.20
2012,09,12,17,29,19.20
2012,09,12,17,30,19.30
2012,09,12,17,31,19.30
2012,09,12,17,32,19.30
2012,09,12,17,33,19.30
2012,09,12,17,34,19.30
2012,09,12,17,35,19.30
2012,09,12,17,36,19.30
2012,09,12,17,37,19.30